Simultaneous Nadir Overpasses (SNOs) Predictions

Prediction of SNOs between GOES-15 and LANDSAT-8 Satellite Orbit:

Table of predicted SNOs for the next 14.0 days since TLE Epoch: 4/6/2024
Index Date Time (GOES-15) GOES-15 Lat,Lon LANDSAT-8 Lat,Lon Distance(km) Time Diff (sec)
1 04/07/2024 17:59:16 0.09, 61.20 0.45, 62.75 177.40 80
2 04/08/2024 06:20:31 -0.10, 61.25 0.66, 57.60 414.27 80
3 04/10/2024 06:08:19 -0.10, 61.26 0.04, 60.55 79.58 80
4 04/12/2024 05:58:47 -0.11, 61.27 -0.60, 63.51 254.49 80
5 04/12/2024 18:20:11 0.11, 61.23 -0.50, 58.31 331.61 80
6 04/14/2024 18:05:18 0.12, 61.25 0.10, 61.28 3.54 80
7 04/16/2024 17:53:06 0.12, 61.28 0.77, 64.23 335.55 80
8 04/17/2024 06:14:21 -0.13, 61.33 0.34, 59.07 256.74 80
9 04/19/2024 06:04:48 -0.13, 61.36 -0.29, 62.03 77.06 80
